Flag Weather past 2 weeks in Avalon (Santa Catalina Island), California, U.S.A.

Now
82 °F

Clear.


Feels Like: 80 °F
Forecast: 68 / 81 °F
Wind: 8 mph from Northwest

Location: Catalina Airport

Current Time: Nov 26, 2014 at 12:11:40 AM

Latest Report: Nov 25, 2014 at 10:51 PM


Visibility: 10 mi

Pressure: 30.20 "Hg

Humidity: 7%

Dew point: 11 °F

Location of Avalon (Santa Catalina Island)Location

Historic Weather in Avalon (Santa Catalina Island) — Graph

°F

Avalon (Santa Catalina Island) temperature yesterday

Maximum temperature yesterday: 98 °F (at 9:51 AM)
Minimum temperature yesterday: 65 °F (at 4:51 AM)
Average temperature yesterday: 81 °F

Past Weeks' High & Low Weather Summary

 TemperatureHumidityPressure
High98 °F (Nov 25, 9:51 AM)100% (Nov 13, 10:51 PM)30.32 "Hg (Nov 13, 10:51 PM)
Low53 °F (Nov 12, 6:51 PM)3% (Nov 25, 9:51 AM)29.89 "Hg (Nov 10, 10:51 PM)
Average61 °F59%30.07 "Hg
* Reported Nov 10 10:51 PM — Nov 25 10:51 PM, Avalon (Santa Catalina Island), Weather by CustomWeather, © 2014

Note: Actual official high and low records may vary slightly from our data, if they occured in-between our weather recording intervals... More about our weather records

Advertising

Avalon (Santa Catalina Island) weather history for previous 24 hours

 ConditionsComfort  
Time TempWeatherWind HumidityBarometerVisibility
10:51 PM
Nov 25
82 °FClear.8 mph7%30.20 "Hg10 mi
9:51 PM81 °FClear.9 mph8%30.20 "Hg10 mi
8:51 PM81 °FClear.7 mph7%30.22 "Hg10 mi
7:51 PM79 °FClear.13 mph7%30.23 "Hg10 mi
6:51 PM80 °FClear.12 mph7%30.25 "Hg10 mi
5:51 PM81 °FClear.12 mph7%30.24 "Hg10 mi
4:51 PM83 °FClear.9 mph9%30.23 "Hg10 mi
3:51 PM89 °FSunny.8 mph7%30.23 "Hg10 mi
2:51 PM91 °FSunny.7 mph6%30.23 "Hg10 mi
1:51 PM96 °FSunny.7 mph4%30.22 "Hg10 mi
12:51 PM96 °FSunny.6 mph4%30.24 "Hg10 mi
11:51 AM93 °FSunny.6 mph4%30.27 "Hg10 mi
10:51 AM94 °FSunny.7 mph4%30.30 "Hg10 mi
9:51 AM98 °FSunny.7 mph3%30.31 "Hg10 mi
8:51 AM88 °FSunny.5 mph5%30.32 "Hg10 mi
7:51 AM84 °FSunny.6 mph5%30.31 "Hg10 mi
6:51 AM66 °FSunny.5 mph9%30.32 "Hg10 mi
5:51 AM66 °FClear.7 mph11%30.32 "Hg10 mi
4:51 AM65 °FClear.6 mph10%30.31 "Hg10 mi
3:51 AM67 °FClear.8 mph9%30.29 "Hg10 mi
2:51 AM67 °FClear.10 mph10%30.29 "Hg10 mi
1:51 AM66 °FClear.9 mph12%30.29 "Hg10 mi
12:51 AM71 °FClear.8 mph11%30.28 "Hg10 mi
Weather by CustomWeather, © 2014

See weather overviewHow to use our weather pages